Weather History for New Orleans Lakefront, LA

Change the Weather History Date:

Tuesday, January 24, 2012

  Actual Average Record
Temperature  
Mean Temperature 64 °F 54 °F  
Max Temperature 67 °F 62 °F 81 °F (2002)
Min Temperature 60 °F 45 °F 14 °F (1963)
Degree Days  
Heating Degree Days 1 12  
Month to date heating degree days 148 288  
Since 1 July heating degree days 550 769  
Cooling Degree Days 0 0  
Month to date cooling degree days 52 12  
Year to date cooling degree days 52 12  
Growing Degree Days 10 (Base 50)    
Moisture  
Dew Point 52 °F    
Average Humidity 70    
Maximum Humidity 87    
Minimum Humidity 52    
Precipitation  
Precipitation 0.01 in 0.17 in 4.60 in (1978)
Month to date precipitation 0.49 3.96  
Year to date precipitation 0.49 3.96  
Snow  
Snow 0.00 in - - ()
Month to date snowfall 0.0  
Since 1 July snowfall 0.0  
Snow Depth 0.00 in    
Sea Level Pressure  
Sea Level Pressure 30.09 in    
Wind  
Wind Speed 10 mph (East)    
Max Wind Speed 16 mph    
Max Gust Speed 20 mph    
Visibility 10 miles    
Events Rain    
T = Trace of Precipitation, MM = Missing Value Source: NWS Daily Summary

Daily Weather History Graph

Daily Weather History Graph

Search for Another Location

Airport:

Trip Planner

Search our weather history database for the weather conditions in past years. The results will help you decide how hot, cold, wet, or windy it might be!

Date:

Astronomy

Jan. 24, 2012 Rise Set
Actual Time 6:54 AM CST 5:29 PM CST
Civil Twilight 6:29 AM CST 5:55 PM CST
Nautical Twilight 6:00 AM CST 6:24 PM CST
Astronomical Twilight 5:31 AM CST 6:53 PM CST
Moon 7:33 AM CST (1/24) 7:09 PM CST (1/24)
Length of Visible Light 11h 26m
Length of Day
10h 35m
New Moon, 2% of the Moon is Illuminated
Jan 24
New Moon
Jan 30
First Quarter
Feb 7
Full
Feb 14
Last Quarter
Feb 21
New

Hourly Weather History & Observations

Time (CST) Temp. Dew Point Humidity Pressure Visibility Wind Dir Wind Speed Gust Speed Precip Events Conditions
12:53 AM 62.1 °F 57.0 °F 84% 30.05 in 10.0 mi NE 6.9 mph - N/A   Clear
1:53 AM 63.0 °F 55.0 °F 75% 30.06 in 10.0 mi ENE 9.2 mph - N/A   Clear
2:53 AM 62.1 °F 48.9 °F 62% 30.04 in 10.0 mi ENE 16.1 mph - N/A   Clear
3:53 AM 61.0 °F 48.0 °F 62% 30.07 in 10.0 mi ENE 15.0 mph - N/A   Clear
4:53 AM 60.8 °F 46.4 °F 59% 30.09 in 10.0 mi ENE 12.7 mph - N/A   Clear
5:53 AM 59.0 °F 46.9 °F 64% 30.10 in 10.0 mi ENE 11.5 mph - N/A   Partly Cloudy
6:53 AM 59.0 °F 44.1 °F 58% 30.12 in 10.0 mi ENE 12.7 mph - N/A   Clear
7:53 AM 57.9 °F 45.0 °F 62% 30.13 in 10.0 mi ENE 13.8 mph - N/A   Clear
8:53 AM 59.0 °F 46.0 °F 62% 30.13 in 10.0 mi ENE 16.1 mph - N/A   Clear
9:53 AM 61.0 °F 48.0 °F 62% 30.14 in 10.0 mi North - - N/A   Clear
10:53 AM 63.0 °F 48.9 °F 60% 30.14 in 10.0 mi East 11.5 mph - N/A   Partly Cloudy
11:53 AM 62.1 °F 48.0 °F 60% 30.13 in 10.0 mi East 12.7 mph - N/A   Scattered Clouds
12:25 PM 62.6 °F 48.2 °F 59% 30.13 in 10.0 mi East 15.0 mph - N/A   Overcast
12:53 PM 62.1 °F 50.0 °F 65% 30.10 in 10.0 mi East 10.4 mph - N/A   Overcast
1:53 PM 63.0 °F 48.9 °F 60% 30.08 in 10.0 mi East 9.2 mph - N/A   Overcast
2:22 PM 62.6 °F 51.8 °F 68% 30.10 in 10.0 mi East 10.4 mph - 0.00 in Rain Light Rain
2:53 PM 64.4 °F 51.8 °F 64% 30.09 in 10.0 mi East 11.5 mph - N/A   Overcast
3:53 PM 64.9 °F 51.1 °F 61% 30.08 in 10.0 mi East 10.4 mph - N/A   Overcast
4:53 PM 64.9 °F 54.0 °F 68% 30.08 in 10.0 mi East 12.7 mph - N/A   Overcast
5:53 PM 64.0 °F 57.0 °F 78% 30.09 in 10.0 mi East 12.7 mph - N/A   Overcast
6:53 PM 62.1 °F 60.1 °F 93% 30.09 in 10.0 mi East 15.0 mph - 0.02 in Rain Light Rain
7:53 PM 61.0 °F 61.0 °F 100% 30.09 in 10.0 mi East 16.1 mph - 0.01 in   Overcast
8:53 PM 62.1 °F 60.1 °F 93% 30.09 in 10.0 mi East 16.1 mph - N/A   Overcast
9:53 PM 62.1 °F 61.0 °F 96% 30.09 in 10.0 mi East 13.8 mph - N/A   Overcast
10:53 PM 62.1 °F 62.1 °F 100% 30.09 in 10.0 mi East 9.2 mph - N/A   Overcast
11:53 PM 63.0 °F 63.0 °F 100% 30.06 in 7.0 mi East 10.4 mph - N/A   Overcast